Temperature
19 19 19 19 19 19 19 19 19 19 19 19 18 18 18 18 19 19 19 18 18 18 18 18 18 18 18 18 18 18 18 18 18 18 18 18 18 18 18 18 18 17 17
19 19 19 19 19 19 19 19 19 18 18 18 18 18 18 18 18 19 18 18 18 18 18 18 18 18 18 18 18 18 18 18 18 18 18 18 17 17 17 17 17 17 17
19 19 19 19 19 19 19 19 19 18 18 18 18 18 18 18 18 18 18 18 18 18 18 18 18 18 18 18 18 18 18 18 18 18 18 18 17 17 17 17 17 17 17
19 19 19 19 19 19 19 19 18 18 18 18 18 18 18 18 18 18 18 18 18 18 18 18 18 18 18 18 18 18 18 18 18 18 18 18 17 17 17 17 17 17 17
19 19 19 19 19 18 18 18 18 18 18 18 18 18 18 18 18 18 18 18 18 18 18 18 18 18 18 18 18 18 18 18 18 18 18 18 17 17 17 17 17 17 17
19 19 19 18 18 18 18 18 18 18 18 18 18 18 18 18 18 18 18 18 18 18 18 18 18 18 18 18 18 18 18 18 18 18 18 17 17 17 17 17 17 17 17
19 19 19 18 18 18 18 18 18 18 18 18 18 18 18 18 18 18 18 18 18 18 18 18 18 18 18 18 18 18 18 18 18 18 18 17 17 17 17 17 17 17 17
19 18 18 18 18 18 18 18 18 18 18 18 18 18 18 18 18 18 18 18 18 18 18 18 18 18 18 18 18 18 18 18 18 18 18 17 17 17 17 17 17 17 17
19 18 18 18 18 18 18 18 18 18 18 18 18 18 18 18 18 18 18 18 18 18 18 18 18 18 18 18 18 18 18 18 18 18 17 17 17 17 17 17 17 17 17
18 18 18 18 18 18 18 18 18 18 18 18 18 18 18 18 18 18 18 18 18 18 18 18 18 18 18 18 18 18 18 18 18 18 17 17 17 17 17 17 17 17 17
18 18 18 18 18 18 18 18 18 18 18 18 18 18 18 18 18 18 18 18 18 18 18 18 18 18 18 17 18 18 18 18 17 17 17 17 17 17 17 17 17 17 17
18 18 18 18 18 18 18 18 18 18 18 18 18 17 17 17 18 18 18 18 18 18 18 18 18 18 17 17 17 17 18 18 17 17 17 17 17 17 17 17 17 17 17
18 18 18 18 18 18 18 18 18 18 18 18 18 17 17 17 17 18 18 18 18 18 18 18 18 18 17 17 17 17 18 17 17 17 17 17 17 17 17 17 17 17 17
18 18 18 18 18 18 18 18 18 18 18 18 18 18 18 17 17 17 18 18 18 18 18 18 18 17 17 17 17 17 18 17 17 17 17 17 17 17 17 17 17 17 17
19 18 18 18 18 18 18 18 18 18 18 18 18 18 17 17 17 17 17 18 18 18 18 18 17 17 17 17 17 17 17 17 17 17 17 17 17 17 17 17 17 17 17
19 19 18 18 18 18 18 18 18 18 18 18 18 17 17 17 17 17 17 17 17 17 17 17 17 17 17 17 17 17 17 17 17 17 17 17 17 17 17 17 17 17 17
19 19 19 18 18 18 18 18 18 18 18 18 17 17 17 17 17 17 17 17 17 17 17 17 17 17 17 17 17 17 17 17 17 17 17 17 17 17 17 17 17 17 17
19 19 19 18 18 18 18 18 18 18 18 17 17 17 17 17 17 17 17 17 17 17 17 17 17 17 17 17 17 17 17 17 17 17 17 17 17 17 17 17 17 17 17
19 19 19 19 18 18 18 18 18 18 17 17 17 17 17 17 17 17 17 17 17 17 17 17 17 17 17 17 17 17 17 17 17 17 17 17 17 17 17 17 17 17 17
19 19 19 19 18 18 18 18 18 18 17 17 17 17 17 17 17 17 17 17 17 17 17 17 17 17 17 17 17 17 17 17 17 17 17 17 17 17 17 17 17 17 17
19 19 19 19 18 18 18 18 18 18 18 17 17 17 17 17 17 17 17 17 17 17 17 17 17 17 17 17 17 17 17 17 17 17 17 17 17 17 17 17 17 17 17
20 19 19 19 19 19 18 18 18 18 18 18 17 17 17 17 17 17 17 17 17 17 17 17 17 17 17 17 17 17 17 17 17 17 17 17 17 17 17 17 17 17 16
20 20 19 19 19 19 18 18 18 18 18 18 18 17 17 17 17 17 17 17 17 17 17 17 17 17 17 17 17 17 17 17 17 17 17 17 17 17 17 17 17 16 16
20 20 19 19 19 19 18 18 18 18 18 18 18 18 18 17 17 17 17 17 17 17 17 17 17 17 17 17 17 17 17 16 16 17 17 17 17 17 17 17 16 16 16
20 20 20 19 19 19 19 19 18 18 18 18 18 18 18 17 17 17 17 17 17 17 17 17 17 17 17 17 17 17 17 16 16 16 16 17 17 17 17 16 16 16 16
20 20 19 19 19 19 19 19 18 18 18 18 18 18 18 18 17 17 17 17 17 17 17 17 17 17 17 17 17 17 17 17 17 16 16 16 17 17 17 17 17 16 16
Wind_Speed
2 2 5 6 7 8 10 11 11 11 12 13 13 14 14 14 14 15 16 17 17 16 16 16 16 17 17 17 17 17 17 16 16 16 16 15 15 15 15 15 15 14 16
3 4 6 6 7 9 10 11 12 12 12 12 12 13 13 13 13 14 15 16 16 16 16 16 17 17 17 17 17 16 16 16 16 15 15 14 14 15 15 15 14 13 15
3 4 5 6 8 10 11 11 11 12 11 11 12 12 12 13 13 14 14 15 16 15 15 16 16 16 16 16 16 16 16 16 15 15 14 12 13 14 14 15 15 15 14
4 4 5 7 8 10 11 11 11 11 11 11 12 12 12 12 12 12 13 14 15 15 15 16 16 16 16 16 16 15 15 15 14 14 11 10 11 13 14 14 15 14 14
4 4 5 8 9 10 10 10 10 10 10 11 11 11 11 11 11 11 11 13 14 15 15 16 15 15 15 15 15 14 14 14 14 12 10 9 10 13 14 14 14 14 13
4 4 5 8 9 9 9 9 9 9 10 10 10 11 10 10 10 10 11 12 13 14 15 15 15 15 14 14 14 13 12 13 12 11 10 9 10 13 13 14 13 13 13
4 4 5 8 8 8 8 8 8 8 9 9 10 10 10 10 10 10 11 12 13 13 14 14 14 14 14 14 14 13 12 13 11 10 9 9 10 13 13 13 13 12 12
4 4 5 7 7 7 6 7 7 8 8 9 9 9 10 10 9 10 10 11 12 13 13 14 13 13 13 13 12 12 12 12 11 9 8 9 11 12 13 12 12 12 12
4 4 4 5 5 5 5 6 6 7 8 9 9 9 9 9 9 9 10 10 11 12 12 12 12 12 12 12 12 11 12 11 10 9 8 8 11 12 12 12 12 12 12
4 4 3 3 3 3 4 5 5 7 8 9 8 8 9 9 9 9 9 9 10 11 11 11 11 11 11 11 11 11 11 11 9 8 8 9 12 12 12 11 11 11 11
3 3 2 3 3 2 3 4 4 6 7 7 7 8 7 6 7 7 8 9 9 10 10 10 10 10 10 9 10 10 10 7 8 7 7 10 11 11 11 11 11 11 11
1 1 2 2 2 2 2 3 3 4 5 5 5 5 6 5 5 5 8 9 8 8 8 8 8 8 6 5 7 8 6 7 7 6 8 10 11 11 11 11 11 10 10
2 1 1 1 2 2 2 2 3 4 4 5 5 6 5 5 4 3 3 4 5 5 4 5 5 4 4 4 4 5 6 6 5 6 8 11 11 11 11 10 10 10 10
2 1 1 1 2 2 2 2 3 3 3 3 4 5 4 3 2 2 2 3 3 3 3 3 3 4 4 3 4 5 6 5 5 6 8 11 11 11 10 10 10 10 10
3 2 1 1 1 1 2 2 3 2 3 3 4 4 4 3 2 2 1 2 3 3 3 3 3 3 3 3 3 4 5 6 6 6 7 9 10 10 10 10 10 10 10
4 3 2 2 2 2 1 1 2 2 2 3 3 4 4 3 2 2 2 2 2 3 3 3 3 3 3 3 3 3 4 5 6 6 6 7 9 9 10 10 10 10 10
4 3 3 3 2 2 1 1 2 2 2 2 2 4 4 4 3 2 2 2 2 3 3 3 4 4 3 3 3 3 3 3 4 5 6 6 7 9 10 10 10 10 10
4 4 4 4 3 2 2 1 1 2 2 2 2 3 4 4 4 3 2 2 3 3 3 3 3 3 3 2 2 1 2 2 3 4 5 6 6 6 8 10 10 11 11
5 5 4 3 3 3 2 2 1 1 2 2 2 3 3 3 4 4 3 2 3 3 3 3 3 3 3 2 2 1 1 1 1 3 3 5 6 6 6 8 9 10 10
5 5 4 3 3 3 2 2 2 2 1 1 2 2 3 4 4 4 3 2 3 3 3 3 4 3 3 2 2 1 1 1 0 1 2 3 4 6 7 7 7 8 9
4 5 5 4 3 3 2 2 2 1 1 1 1 3 3 4 4 4 3 3 3 3 3 3 3 4 2 2 2 1 2 1 1 1 1 2 3 4 5 6 6 6 6
7 6 5 5 4 4 3 2 2 2 2 1 1 2 2 3 4 4 4 3 3 3 3 3 3 3 2 2 2 1 1 2 1 1 1 2 2 3 4 5 5 6 6
7 7 7 6 5 4 4 3 3 3 2 2 2 1 1 2 3 3 3 3 3 3 3 3 3 3 2 1 1 2 2 1 1 1 0 1 2 2 3 4 5 5 6
9 7 6 6 5 4 5 4 5 4 3 2 1 1 1 2 3 3 3 3 3 3 3 3 3 2 3 2 1 1 1 2 1 1 1 1 1 2 3 3 4 5 6
8 7 7 6 6 5 5 5 5 4 3 2 2 1 1 1 1 3 3 3 3 2 3 2 3 3 2 3 2 1 1 1 1 1 2 2 1 1 2 3 3 4 5
6 6 6 6 6 5 6 5 6 5 4 4 2 2 1 1 0 1 3 3 3 2 3 3 3 3 3 3 2 2 2 2 2 2 3 2 2 1 1 2 3 4 5
Wind_Direction
228 199 171 152 144 140 140 138 136 135 133 133 134 135 137 138 141 140 143 145 144 145 144 143 141 139 139 139 138 138 139 138 137 136 135 133 131 129 128 124 123 122 122
178 169 163 151 144 140 140 140 139 137 135 137 139 139 141 142 142 143 144 147 147 148 146 144 143 142 142 141 141 141 141 140 140 138 136 134 134 133 130 129 127 127 126
131 151 153 143 137 139 138 138 136 135 135 138 140 140 142 142 142 143 146 149 150 151 150 149 146 144 144 144 143 143 143 142 142 139 136 133 137 137 136 135 132 131 130
113 128 137 128 129 133 136 135 135 135 136 137 140 139 140 140 140 143 147 152 153 151 151 150 148 146 145 145 144 145 145 144 144 140 134 136 140 142 140 138 136 137 134
100 116 132 124 122 126 130 131 132 133 134 135 137 139 140 140 142 147 149 152 155 154 152 151 149 148 148 147 146 147 149 148 146 140 133 136 141 146 144 141 140 138 139
93 110 127 124 119 119 123 127 130 129 133 134 135 137 140 142 146 148 150 151 155 157 154 151 152 152 151 150 150 151 153 152 145 138 136 142 148 150 147 146 145 142 142
95 103 122 125 121 121 124 130 133 130 131 133 136 139 142 143 144 147 146 150 153 153 152 153 154 153 153 152 152 153 153 153 144 139 141 148 153 153 150 150 150 151 150
105 105 111 115 118 122 126 129 135 135 134 134 133 134 135 137 140 140 143 147 151 154 155 155 155 154 155 155 154 154 153 152 148 146 146 151 157 157 155 155 155 157 157
91 88 99 107 117 121 127 129 133 134 133 133 134 136 134 135 136 138 144 147 149 153 156 158 158 156 157 157 157 158 157 155 147 150 158 162 164 164 162 161 160 158 158
67 60 64 77 85 102 124 128 129 132 132 138 138 139 135 132 132 137 143 148 149 152 155 159 160 160 159 159 159 160 159 153 149 156 165 171 171 172 169 166 162 161 162
68 39 48 57 72 87 118 133 134 131 133 134 135 138 129 125 127 132 142 147 150 153 155 157 156 160 160 159 161 162 155 152 154 164 170 175 175 176 175 172 171 171 170
115 37 48 53 64 76 94 103 114 121 125 122 119 117 113 111 117 124 133 140 143 146 149 152 150 153 152 155 162 159 152 153 160 172 178 179 181 181 181 179 179 179 178
168 125 66 53 69 64 61 90 100 108 116 115 113 115 113 110 106 99 115 124 127 131 128 134 136 134 135 146 153 153 154 159 166 173 178 183 186 186 184 184 183 184 184
150 163 115 89 66 47 69 86 99 111 118 117 123 128 125 114 92 88 92 99 101 108 107 106 113 120 129 140 148 151 155 164 169 173 181 185 187 188 188 189 187 185 183
170 181 174 147 111 84 79 83 96 109 128 134 137 141 137 128 114 117 127 118 111 116 118 114 110 119 120 121 140 151 156 165 172 177 180 187 191 194 196 197 196 194 194
190 197 182 165 145 112 98 92 120 132 141 139 150 159 154 156 148 142 130 125 131 141 141 131 126 125 126 128 132 146 158 166 170 174 182 186 193 198 200 203 203 203 204
193 190 182 170 147 136 130 145 145 151 148 146 169 172 165 167 169 156 132 135 148 143 132 116 109 110 116 121 126 139 147 160 170 178 183 187 194 202 205 208 209 208 209
179 179 184 179 160 155 143 147 152 157 154 170 181 170 167 169 163 150 132 136 150 140 134 125 123 118 117 118 122 127 134 151 172 182 187 188 194 202 207 210 212 213 213
179 176 174 169 159 160 141 125 126 141 152 174 171 172 172 166 159 154 142 144 136 127 128 132 124 128 125 120 113 90 88 152 187 192 194 196 196 199 206 213 214 216 216
173 170 171 164 151 137 116 91 77 82 110 156 162 170 167 164 157 154 146 132 126 121 121 119 118 110 113 116 105 68 22 348 259 211 214 206 198 202 210 214 216 218 219
166 168 172 167 160 143 131 133 128 148 124 107 151 163 162 160 155 156 147 133 130 130 131 126 117 111 105 105 90 48 12 5 305 256 235 217 212 207 208 214 217 219 223
183 183 178 179 171 165 164 154 145 136 133 128 114 119 151 159 160 162 149 142 139 132 127 127 123 119 106 115 123 109 8 356 340 264 226 217 226 218 219 222 220 220 224
189 191 190 187 182 176 154 125 106 90 76 72 67 72 102 150 156 159 150 146 146 147 153 151 144 142 154 161 127 143 145 226 325 347 269 224 213 218 228 228 228 228 227
197 191 186 180 179 174 155 147 145 151 159 178 159 146 107 138 149 159 155 152 147 146 154 166 153 156 156 173 145 140 156 155 156 334 342 295 230 228 235 234 240 235 232
191 186 184 175 177 172 164 166 162 165 174 146 127 119 114 105 145 164 164 159 151 153 156 156 151 167 171 174 173 159 152 136 166 194 278 307 308 246 234 236 241 241 238
176 175 176 173 181 177 173 172 174 175 170 152 155 166 175 158 143 169 168 165 166 167 170 174 174 180 188 186 181 174 170 169 179 188 227 258 273 277 245 237 238 241 241
Height
1500 1499 1499 1499 1499 1499 1499 1500 1501 1502 1503 1505 1506 1507 1508 1509 1510 1512 1514 1517 1519 1522 1525 1528 1530 1533 1536 1539 1541 1544 1546 1548 1550 1552 1553 1555 1557 1558 1560 1561 1562 1563 1565
1500 1500 1500 1500 1499 1499 1500 1501 1502 1503 1504 1505 1507 1508 1509 1510 1511 1513 1514 1517 1520 1523 1526 1528 1531 1534 1537 1540 1542 1545 1547 1549 1551 1553 1555 1556 1558 1560 1561 1562 1563 1565 1566
1501 1501 1501 1500 1500 1500 1502 1503 1504 1505 1505 1506 1507 1508 1509 1510 1512 1513 1515 1517 1520 1523 1526 1529 1532 1535 1538 1540 1543 1545 1548 1550 1552 1554 1556 1557 1559 1561 1562 1564 1565 1566 1568
1502 1503 1502 1502 1502 1502 1503 1504 1505 1506 1507 1507 1508 1509 1510 1511 1513 1514 1516 1518 1520 1523 1526 1529 1532 1535 1538 1541 1544 1546 1549 1551 1553 1555 1557 1558 1560 1562 1563 1565 1566 1567 1569
1504 1504 1504 1504 1504 1505 1505 1506 1507 1508 1508 1509 1510 1511 1512 1512 1513 1515 1516 1518 1520 1524 1526 1529 1533 1536 1539 1542 1545 1547 1550 1552 1554 1556 1557 1559 1561 1562 1564 1565 1567 1568 1569
1506 1506 1506 1506 1506 1507 1507 1508 1509 1509 1510 1510 1511 1512 1512 1513 1514 1515 1516 1518 1520 1524 1527 1530 1533 1537 1540 1542 1545 1548 1550 1553 1555 1556 1558 1560 1561 1563 1565 1566 1567 1569 1570
1507 1507 1507 1507 1508 1509 1509 1510 1510 1511 1511 1512 1512 1513 1513 1514 1515 1516 1517 1518 1521 1524 1528 1531 1534 1537 1540 1543 1546 1549 1551 1553 1555 1557 1559 1560 1562 1564 1565 1567 1568 1569 1571
1509 1509 1509 1509 1510 1510 1511 1511 1511 1512 1512 1513 1514 1514 1515 1515 1516 1517 1518 1520 1521 1525 1528 1532 1535 1538 1541 1544 1547 1549 1552 1554 1556 1557 1559 1561 1562 1564 1565 1567 1568 1569 1571
1510 1511 1511 1511 1511 1511 1512 1512 1512 1513 1513 1514 1515 1515 1516 1517 1517 1518 1519 1521 1524 1526 1530 1533 1536 1539 1542 1545 1547 1550 1552 1554 1556 1557 1559 1561 1563 1564 1565 1567 1569 1570 1571
1512 1512 1512 1512 1512 1512 1513 1513 1513 1513 1514 1515 1516 1516 1517 1518 1518 1519 1521 1523 1525 1528 1531 1534 1537 1540 1543 1546 1548 1551 1553 1555 1556 1558 1560 1561 1563 1564 1566 1567 1569 1570 1571
1513 1513 1513 1513 1514 1514 1514 1514 1514 1514 1515 1516 1517 1518 1518 1519 1520 1521 1522 1524 1527 1530 1533 1536 1539 1541 1544 1546 1549 1551 1553 1555 1556 1558 1560 1561 1563 1564 1566 1567 1568 1570 1571
1514 1515 1514 1515 1515 1515 1515 1515 1514 1515 1516 1517 1518 1519 1520 1521 1522 1522 1524 1526 1529 1531 1534 1537 1540 1542 1545 1547 1549 1551 1553 1555 1556 1558 1559 1561 1563 1564 1565 1567 1568 1570 1571
1516 1516 1516 1516 1516 1516 1516 1516 1515 1516 1517 1519 1520 1521 1522 1523 1524 1524 1526 1528 1531 1533 1536 1538 1541 1543 1545 1547 1549 1551 1553 1554 1555 1557 1559 1561 1562 1564 1565 1567 1568 1569 1571
1517 1518 1518 1518 1518 1518 1517 1517 1517 1518 1519 1520 1522 1523 1524 1525 1526 1527 1528 1530 1532 1535 1537 1539 1542 1544 1546 1548 1550 1551 1553 1554 1555 1557 1559 1560 1562 1563 1565 1566 1567 1568 1570
1519 1519 1519 1520 1520 1520 1520 1520 1520 1520 1522 1523 1524 1525 1526 1527 1528 1529 1530 1532 1534 1536 1538 1540 1543 1544 1546 1548 1550 1551 1552 1554 1555 1557 1558 1560 1561 1562 1564 1565 1567 1568 1569
1520 1520 1521 1521 1521 1521 1521 1522 1522 1523 1524 1525 1526 1527 1528 1529 1530 1531 1532 1533 1535 1537 1540 1542 1543 1545 1547 1549 1550 1551 1553 1554 1555 1556 1558 1559 1560 1562 1563 1564 1566 1567 1568
1520 1521 1522 1522 1523 1523 1523 1524 1524 1525 1526 1527 1528 1528 1529 1530 1531 1532 1533 1534 1536 1539 1541 1542 1544 1545 1547 1549 1550 1551 1552 1554 1555 1556 1557 1558 1559 1561 1562 1563 1564 1566 1567
1521 1522 1523 1523 1523 1524 1525 1525 1526 1526 1527 1528 1529 1530 1530 1532 1532 1533 1534 1535 1537 1539 1541 1543 1544 1546 1548 1549 1550 1551 1552 1553 1554 1555 1556 1557 1558 1559 1561 1562 1563 1565 1566
1522 1523 1523 1524 1524 1525 1526 1526 1527 1527 1528 1529 1530 1531 1532 1533 1534 1535 1536 1537 1538 1540 1542 1544 1545 1547 1548 1549 1550 1551 1552 1552 1553 1554 1554 1555 1557 1558 1560 1561 1562 1563 1565
1522 1523 1524 1524 1525 1526 1526 1527 1528 1528 1529 1530 1531 1532 1534 1535 1536 1537 1538 1539 1540 1541 1543 1544 1546 1547 1549 1550 1550 1551 1551 1552 1552 1553 1553 1554 1555 1556 1558 1560 1561 1562 1563
1522 1523 1524 1525 1525 1526 1526 1527 1528 1529 1530 1531 1533 1534 1535 1536 1537 1538 1539 1540 1542 1543 1544 1545 1547 1548 1549 1550 1551 1551 1552 1552 1552 1553 1553 1553 1554 1555 1557 1558 1559 1560 1561
1521 1522 1523 1524 1525 1526 1527 1528 1529 1530 1531 1532 1534 1535 1536 1537 1538 1539 1540 1541 1542 1544 1545 1546 1547 1548 1549 1550 1551 1551 1552 1553 1552 1553 1553 1553 1553 1554 1555 1556 1558 1558 1559
1520 1521 1523 1524 1526 1527 1528 1529 1530 1531 1532 1533 1534 1536 1537 1538 1539 1540 1541 1542 1543 1544 1545 1546 1548 1549 1549 1551 1551 1552 1551 1551 1552 1552 1552 1553 1553 1554 1554 1555 1556 1556 1557
1518 1520 1522 1524 1525 1527 1528 1529 1530 1531 1532 1534 1535 1537 1538 1538 1539 1540 1541 1542 1543 1544 1545 1546 1547 1548 1549 1550 1550 1551 1552 1552 1552 1552 1552 1552 1553 1553 1553 1554 1554 1555 1555
1516 1518 1520 1522 1524 1526 1528 1529 1530 1531 1533 1534 1536 1537 1538 1539 1540 1540 1541 1542 1543 1544 1545 1546 1547 1548 1548 1549 1550 1550 1550 1551 1551 1551 1551 1551 1552 1552 1552 1552 1553 1553 1553
1514 1516 1519 1521 1523 1525 1527 1528 1530 1531 1532 1534 1535 1536 1537 1538 1539 1540 1541 1542 1543 1543 1544 1545 1546 1546 1547 1548 1548 1549 1549 1550 1550 1550 1550 1549 1549 1550 1550 1551 1551 1551 1552